DECAYED

STARLINK-2347, 47795 (Decayed)

Orbit data source: Space-Track

STARLINK-2347, 47795 was a payload satellite owned by SpaceX/Seattle (US) in LEO that was launched on Thu, 11 Mar 2021 UTC via an FALCON 9 launch vehicle from the Air Force Eastern Test Range (AFETR). Payload-class satellites include a variety of spacecraft equipped with specific instruments for various scientific and technological missions. These include communications satellites like Starlink; space stations such as the ISS; scientific satellites like the Hubble; Earth observation satellites from companies like Planet Labs, Umbra, and HawkEye 360; GPS; miniature CubeSats for education and research; and military/defense satellites.

Not visible in the next 10 days
Identifier
47795, 2021-018J
Orbit
Decayed
Country
Flag of USUS
Related business
Manufacturer
SpaceX/Seattle
Mission
Decayed Commercial Communications
Bus & Motor
STARLINK, Unknown motor
Mass
260 kg wet, ~248 kg dry
Launch date (UTC)
2021-03-11 (5 years ago)
Launch vehicle
FALCON 9
Launch site
Air Force Eastern Test Range (AFETR)
Object type
Payload
Rocket body
Debris
Shape & HBR
Box + 1 Pan, 10.1 m
Radar Cross Section
13.562 m², Large (>1 m²)

Expand to show TLE details & history
Last TLE update: 2 years ago

TLE from 2 years ago
0 STARLINK-2347
1 47795U 21018J   25005.93465576  .22234998  12218-4  26277-2 0  9994
2 47795  53.0254 333.3430 0004842 249.6634 219.6896 16.35795641212311
Epoch: 2025-01-05T22:25Z
TLE epoch observation values (Epoch: 2025-01-05T22:25:54.257Z)
Latitude
49.08559°
Longitude
11.36953°
Altitude
185.008 km
Speed
7.8 km/s
True Right ascension
06h 14m 26s
True Declination
48° 54' 01"
Sunlit
Object was in full shadow at epoch
Visualization orbit readout
Latitude
Unknown
Longitude
Unknown
Altitude
Unknown
Speed
Unknown
Apparent Right ascension
Unknown
Apparent Declination
Unknown
Sunlit
N/A
Visualization observer readout
Local Sidereal Time
06:52:55
Azimuth
Unknown
Elevation
Unknown
Doppler factor
Unknown
Orbital elements
Apogee altitude
180.475 km
Perigee altitude
174.127 km
Semi-major axis
6,555.438 km
Eccentricity
0.00048
Inclination
53.0254°
RAAN
333.343°
Arg. of periapsis
249.6634°
True anomaly
219.65418°
Mean anomaly
219.6896°
Eccentric anomaly
219.67189°
Mean motion
4.08922 °/min
Orbital period
88.04 mins
BSTAR
0.0026277
Loading maneuver chart data...
Computing Atmospheric mass density...
Loading historical data...
Loading historical data...
Loading historical data...
Loading historical data...
Loading historical data...
Loading historical data...
Loading historical data...

Documentation

Showing up to 5 results
|